Location: Baia Mare
(47.6567°N, 23.5850°E)
Time: 14:31:12
(UTC+03:00)

ISS - Pass Details

Date: 19 July 2019
Orbit: 409 x 418 km, 51.6° (Epoch: 21 July)

Event Time Altitude Azimuth Distance (km) Brightness Sun altitude
Rises 23:14:45 0° 255° (WSW) 2,349 0.3 -14.9°
Reaches altitude 10° 23:16:51 10° 258° (WSW) 1,486 -0.7 -15.1°
Maximum altitude 23:20:10 65° 341° (NNW) 460 -3.4 -15.4°
Drops below altitude 10° 23:23:29 10° 64° (ENE) 1,486 -1.0 -15.7°
Sets 23:25:35 0° 68° (ENE) 2,348 0.0 -15.9°
